Location: Ago
(8.4667°N, 4.4833°E)
Time: 23:00:35
(UTC+00:00)

CZ-4 R/B - Pass Details

Date: 18 September 2020
Orbit: 530 x 600 km, 97.7° (Epoch: 20 October)

Event Time Altitude Azimuth Distance (km) Brightness Sun altitude
Rises 18:33:47 0° 167° (SSE) 2,812 4.8 -14.1°
Reaches altitude 10° 18:35:55 10° 166° (SSE) 1,919 3.9 -14.6°
Maximum altitude 18:40:06 83° 79° (E) 604 1.4 -15.6°
Drops below altitude 10° 18:44:19 10° 351° (N) 1,933 4.3 -16.7°
Sets 18:46:29 0° 350° (N) 2,835 5.1 -17.2°
